(202512) = 2001 XH236 = 2006 BR178

Discovered at Mount Lemmon on 2006-01-27 by Mt. Lemmon Survey.

Orbit

Orbit type: Main Belt

Note: WebGL enabled browser required.

epoch2024-03-31.0
epoch JD2460400.5
perihelion date2023-10-16.94101
perihelion JD2460234.44101
argument of perihelion (°)71.00591
ascending node (°)334.68110
inclination (°)2.06247
eccentricity0.1798352
perihelion distance (AU)1.9546678
Tisserand w.r.t. Jupiter3.5
ΔV w.r.t. Earth (km/sec)8.7
semimajor axis (AU)2.3832622
mean anomaly (°)44.48448
mean daily motion (°/day)0.26788360
aphelion distance (AU)2.812
period (years)3.68
P-vector [x]0.69831557
P-vector [y]0.64244571
P-vector [z]0.31562458
Q-vector [x]-0.71562454
Q-vector [y]0.63609816
Q-vector [z]0.28854923
absolute magnitude17.42
phase slope0.15
uncertainty0
referenceMPEC 2024-E152
observations used367
oppositions13
arc length (days)9123
first opposition used1999
last opposition used2024
residual rms (arc-secs)0.72
perturbers coarse indicatorM-v
perturbers precise indicator003Ek
first observation date used1999-03-19.0
last observation date used2024-03-10.0
computer nameMPCLINUX
JD of orbit computation2456789.287240
perihelion JD uncertainty (days)5.0704E-05
argument of perihelion uncertainty (°)1.1018E-04
ascending node uncertainty (°)1.0871E-04
inclination uncertainty (°)4.5967E-06
eccentricity uncertainty 4.8532E-08
perihelion distance uncertainty (AU)1.1610E-07
Minimum Orbit Intersection Distances (in AU)
for orbit epoch: 2460400.5, reference: E2024-EF2
Mercury1.63621
Venus1.23407
Earth0.96541
Mars0.46108
Jupiter2.57747
Saturn6.84545
Uranus15.7999
Neptune27.8007

Observations

373 total observations over interval: 1999 03 19.28802 – 2024 03 10.54616
These data are available for download (format description).

Date (UT) J2000 RA J2000 Dec Magn Location Ref
1999 03 19.28802 11 53 02.63 -00 40 27.8 20.6 V 691 – Steward Observatory, Kitt Peak-Spacewatch MPS 213757
1999 03 19.30898 11 53 01.39 -00 40 20.6 20.5 V 691 – Steward Observatory, Kitt Peak-Spacewatch MPS 213757
1999 03 19.33767 11 52 59.67 -00 40 10.8 21.0 V 691 – Steward Observatory, Kitt Peak-Spacewatch MPS 213757
1999 03 20.293990 11 52 04.461 -00 34 53.37 20.80 V 645 – Apache Point-Sloan Digital Sky Survey MPS 211846
1999 03 20.297462 11 52 04.252 -00 34 52.21 21.75   645 – Apache Point-Sloan Digital Sky Survey MPS 211846
2001 12 15.23637 05 10 58.93 +26 51 25.4 19.0   704 – Lincoln Laboratory ETS, New Mexico MPS 45410
2001 12 15.25147 05 10 57.87 +26 51 23.7 19.7   704 – Lincoln Laboratory ETS, New Mexico MPS 45410
2001 12 15.26657 05 10 56.79 +26 51 21.8 20.0   704 – Lincoln Laboratory ETS, New Mexico MPS 45410
2001 12 18.29565 05 07 42.07 +26 44 54.3 19.7   704 – Lincoln Laboratory ETS, New Mexico MPS 45410
2001 12 18.29666 05 07 42.01 +26 44 54.4 19.5   704 – Lincoln Laboratory ETS, New Mexico MPS 45410
2001 12 18.31088 05 07 41.05 +26 44 52.2 19.7   704 – Lincoln Laboratory ETS, New Mexico MPS 45410
2001 12 18.31189 05 07 40.98 +26 44 52.2 19.7   704 – Lincoln Laboratory ETS, New Mexico MPS 45410
2001 12 18.32610 05 07 39.99 +26 44 50.3 19.8   704 – Lincoln Laboratory ETS, New Mexico MPS 45410
2001 12 18.32711 05 07 39.98 +26 44 50.6 19.8   704 – Lincoln Laboratory ETS, New Mexico MPS 45410
2001 12 18.34134 05 07 39.02 +26 44 47.7 20.2   704 – Lincoln Laboratory ETS, New Mexico MPS 45410
2001 12 18.34234 05 07 38.96 +26 44 48.4 19.7   704 – Lincoln Laboratory ETS, New Mexico MPS 45410
2001 12 19.29792 05 06 39.44 +26 42 39.2 19.5   704 – Lincoln Laboratory ETS, New Mexico MPS 54671
2001 12 19.31322 05 06 38.42 +26 42 37.3 19.5   704 – Lincoln Laboratory ETS, New Mexico MPS 54671
2001 12 19.32836 05 06 37.47 +26 42 35.5 19.3   704 – Lincoln Laboratory ETS, New Mexico MPS 54671
2001 12 19.34362 05 06 36.51 +26 42 33.0 19.4   704 – Lincoln Laboratory ETS, New Mexico MPS 54671
2001 12 19.35926 05 06 35.51 +26 42 30.9 19.3   704 – Lincoln Laboratory ETS, New Mexico MPS 54671
2001 12 19.37030 05 06 34.66 +26 42 29.3 19.2   704 – Lincoln Laboratory ETS, New Mexico MPS 54671
2001 12 19.38885 05 06 33.46 +26 42 26.9 19.4   704 – Lincoln Laboratory ETS, New Mexico MPS 54671
2001 12 19.40628 05 06 32.34 +26 42 23.8 19.9   704 – Lincoln Laboratory ETS, New Mexico MPS 54671
2001 12 19.42747 05 06 31.03 +26 42 21.6 19.9   704 – Lincoln Laboratory ETS, New Mexico MPS 54671
2001 12 19.44270 05 06 30.10 +26 42 18.5 20.1   704 – Lincoln Laboratory ETS, New Mexico MPS 54671
2005 12 06.465547 09 43 05.786 +15 28 52.34 21.54 V 645 – Apache Point-Sloan Digital Sky Survey MPS 390252
2005 12 06.469019 09 43 05.877 +15 28 51.82 22.36   645 – Apache Point-Sloan Digital Sky Survey MPS 390252
2006 01 20.21400 09 31 48.71 +16 08 27.5   691 – Steward Observatory, Kitt Peak-Spacewatch MPS 163287
2006 01 20.23134 09 31 47.66 +16 08 31.5   691 – Steward Observatory, Kitt Peak-Spacewatch MPS 163287
2006 01 20.24872 09 31 46.66 +16 08 35.3   691 – Steward Observatory, Kitt Peak-Spacewatch MPS 163287
2006 01 27.28552 09 24 48.31 +16 35 40.7 20.2 V G96 – Mt. Lemmon Survey MPS 162962
2006 01 27.29106 09 24 47.98 +16 35 41.9 20.4 V G96 – Mt. Lemmon Survey MPS 162962
2006 01 27.29659 09 24 47.59 +16 35 43.3 20.1 V G96 – Mt. Lemmon Survey MPS 162962
2006 01 27.30224 09 24 47.26 +16 35 44.6 20.2 V G96 – Mt. Lemmon Survey MPS 162962
2006 02 02.16937 09 18 31.54 +16 58 55.0 20.2 V 691 – Steward Observatory, Kitt Peak-Spacewatch MPS 162962
2006 02 02.18676 09 18 30.39 +16 58 59.1 20.2 V 691 – Steward Observatory, Kitt Peak-Spacewatch MPS 162962
2006 02 02.20415 09 18 29.23 +16 59 03.5 20.3 V 691 – Steward Observatory, Kitt Peak-Spacewatch MPS 162962
2006 02 06.27079 09 14 04.59 +17 14 36.9 20.0 V G96 – Mt. Lemmon Survey MPS 162962
2006 02 06.27730 09 14 04.16 +17 14 38.2 19.6 V G96 – Mt. Lemmon Survey MPS 162962
2006 02 06.28389 09 14 03.73 +17 14 39.8 19.9 V G96 – Mt. Lemmon Survey MPS 162962
2006 02 06.29043 09 14 03.22 +17 14 41.2 19.9 V G96 – Mt. Lemmon Survey MPS 162962
2006 02 25.19735 08 55 55.09 +18 10 15.6 20.8 V G96 – Mt. Lemmon Survey MPS 165182
2006 02 25.20306 08 55 54.80 +18 10 16.4 20.8 V G96 – Mt. Lemmon Survey MPS 165182
2006 02 25.20889 08 55 54.51 +18 10 16.9 21.0 V G96 – Mt. Lemmon Survey MPS 165182
2006 02 25.21468 08 55 54.22 +18 10 17.7 20.6 V G96 – Mt. Lemmon Survey MPS 165182
2008 08 27.11881 00 10 32.46 +02 10 21.8 19.3 V J75 – OAM Observatory, La Sagra MPS 254522
2008 08 27.13186 00 10 32.09 +02 10 21.0 19.6 V J75 – OAM Observatory, La Sagra MPS 254522
2008 08 27.14501 00 10 31.65 +02 10 20.1 19.5 V J75 – OAM Observatory, La Sagra MPS 254522
2008 09 02.22046 00 07 02.01 +01 58 10.7 20.0 V 691 – Steward Observatory, Kitt Peak-Spacewatch MPS 255234
2008 09 02.23819 00 07 01.26 +01 58 07.7 20.1 V 691 – Steward Observatory, Kitt Peak-Spacewatch MPS 255234
2008 09 02.25341 00 07 00.64 +01 58 05.5 20.1 V 691 – Steward Observatory, Kitt Peak-Spacewatch MPS 255234
2008 09 02.88175 00 06 35.50 +01 56 26.4 19.7 V A50 – Andrushivka Astronomical Observatory MPS 260245
2008 09 02.88361 00 06 35.41 +01 56 26.7 19.5 V A50 – Andrushivka Astronomical Observatory MPS 260245
2008 09 02.88544 00 06 35.37 +01 56 26.3 19.8 V A50 – Andrushivka Astronomical Observatory MPS 260245
2008 09 02.92922 00 06 33.55 +01 56 18.8 19.2 V A50 – Andrushivka Astronomical Observatory MPS 260245
2008 09 06.23684 00 04 12.63 +01 46 52.2   691 – Steward Observatory, Kitt Peak-Spacewatch MPS 255890
2008 09 06.25459 00 04 11.80 +01 46 49.4   691 – Steward Observatory, Kitt Peak-Spacewatch MPS 255890
2008 09 06.27234 00 04 10.96 +01 46 46.1   691 – Steward Observatory, Kitt Peak-Spacewatch MPS 255890
2008 09 24.23011 23 48 33.52 +00 34 39.7 19.2   704 – Lincoln Laboratory ETS, New Mexico MPS 256737
2008 09 24.24220 23 48 32.82 +00 34 36.5 19.7   704 – Lincoln Laboratory ETS, New Mexico MPS 256737
2008 09 24.25430 23 48 32.14 +00 34 32.9 19.5   704 – Lincoln Laboratory ETS, New Mexico MPS 256737
2008 09 24.26638 23 48 31.44 +00 34 29.7 19.9   704 – Lincoln Laboratory ETS, New Mexico MPS 256737
2008 09 24.27846 23 48 30.69 +00 34 26.5 19.8   704 – Lincoln Laboratory ETS, New Mexico MPS 256737
2008 09 25.30064 23 47 34.36 +00 29 48.6 19.3 V G96 – Mt. Lemmon Survey MPS 256737
2008 09 25.30972 23 47 33.82 +00 29 46.1 19.2 V G96 – Mt. Lemmon Survey MPS 256737
2008 09 25.31897 23 47 33.32 +00 29 43.5 19.2 V G96 – Mt. Lemmon Survey MPS 256737
2008 09 25.32806 23 47 32.78 +00 29 41.1 19.4 V G96 – Mt. Lemmon Survey MPS 256737
2008 09 29.22748 23 44 01.66 +00 12 09.3 19.6   704 – Lincoln Laboratory ETS, New Mexico MPS 264617
2008 09 29.23988 23 44 01.01 +00 12 07.3 19.6   704 – Lincoln Laboratory ETS, New Mexico MPS 264617
2008 09 29.25225 23 44 00.35 +00 12 04.4 20.0   704 – Lincoln Laboratory ETS, New Mexico MPS 264617
2008 09 29.26463 23 43 59.55 +00 11 59.6 20.0   704 – Lincoln Laboratory ETS, New Mexico MPS 264617
2008 09 29.27702 23 43 58.79 +00 11 56.1 20.2   704 – Lincoln Laboratory ETS, New Mexico MPS 264617
2008 10 02.34716 23 41 19.24 -00 01 26.7 19.5 V G96 – Mt. Lemmon Survey MPS 257977
2008 10 02.35557 23 41 18.78 -00 01 28.9 19.4 V G96 – Mt. Lemmon Survey MPS 257977
2008 10 02.36397 23 41 18.34 -00 01 31.0 19.7 V G96 – Mt. Lemmon Survey MPS 257977
2008 10 02.37238 23 41 17.95 -00 01 33.5 19.2 V G96 – Mt. Lemmon Survey MPS 257977
2008 11 19.16575 23 33 09.36 -00 32 16.8 20.8 V G96 – Mt. Lemmon Survey MPS 265270
2008 11 19.17150 23 33 09.57 -00 32 15.3 20.6 V G96 – Mt. Lemmon Survey MPS 265270
2008 11 19.17721 23 33 09.75 -00 32 14.1 20.7 V G96 – Mt. Lemmon Survey MPS 265270
2008 11 19.18297 23 33 09.97 -00 32 12.6 20.4 V G96 – Mt. Lemmon Survey MPS 265270
2010 02 17.38061 11 58 24.29 -00 37 07.7 21.1 V 691 – Steward Observatory, Kitt Peak-Spacewatch MPS 316505
2010 02 17.39822 11 58 23.56 -00 37 03.8 20.8 V 691 – Steward Observatory, Kitt Peak-Spacewatch MPS 316505
2010 02 17.41329 11 58 22.87 -00 37 00.7 21.3 V 691 – Steward Observatory, Kitt Peak-Spacewatch MPS 316505
2010 02 18.37388 11 57 43.76 -00 33 43.7   691 – Steward Observatory, Kitt Peak-Spacewatch MPS 316505
